more information


Thunder radar more information blitzortung!


Rain radar more information rain snow radar


Visit our other weather sites:

Template documentation
and downloads

And another site


Select another period ( hide this area )

Units Period Custom range Directly to
Metric English Both
Daily Weekly Monthly Yearly
use both date-selectors for a custom range
previous Day
With this date

WeatherUnderground graphs for this period ( click here )


Daily Summary for Wednesday Jan 22 2020
Time Temp. ( °C ) Dew pt. ( °C ) Wind ( km/h ) from Gust ( km/h ) Pressure ( hPa ) Humid.( % ) Rainrate ( cm ) Solar ( W/m2 )
High-3,0 -7,5 11,3 NNW ( 294/512 ) 17,7 1033,1 73 - 441
Average-5,4 -10,1 5,5 NNW #73/149 10,1 1032,7 70 - 135 #59/149
Low-7,6 -12,4 -   0,0 1031,0 66 -  
Daily Tabular details for Wednesday Jan 22 2020
Time Temp. ( °C ) Dew pt. ( °C ) Wind ( km/h ) from Gust ( km/h ) Pressure ( hPa ) Humid.( % ) Rainrate ( cm ) Solar ( W/m2 )
00:00 -7,3 -12,0   Calm   1032,1 69 - -
00:05 -7,3 -11,9 1,6 NNW 3,2 1032,1 70 - -
00:10 -7,1 -12,0 1,6 NNW 4,8 1032,1 68 - -
00:15 -7,3 -12,0   Calm 4,8 1032,1 69 - -
00:20 -7,4 -12,0   Calm 3,2 1032,1 70 - -
00:25 -7,4 -12,0   Calm   1032,1 70 - -
00:30 -7,4 -12,0   Calm   1032,1 70 - -
00:35 -7,6 -12,1   Calm 3,2 1032,1 70 - -
00:40 -7,6 -11,9   Calm 3,2 1032,1 71 - -
00:45 -7,6 -12,1   Calm 3,2 1032,1 70 - -
00:50 -7,6 -12,3   Calm 4,8 1032,1 69 - -
00:55 -7,6 -12,4   Calm 4,8 1032,1 68 - -
01:00 -7,6 -12,3   Calm 3,2 1032,1 69 - -
01:05 -7,3 -12,0 1,6 NNW 8,0 1032,1 69 - -
01:10 -7,2 -12,3 1,6 NNW 8,0 1032,1 67 - -
01:15 -6,9 -11,9 3,2 NNW 8,0 1032,1 68 - -
01:20 -6,7 -11,8 4,8 NNW 8,0 1032,1 67 - -
01:25 -6,7 -11,9 6,4 NNW 9,7 1032,1 66 - -
01:30 -6,7 -11,9 6,4 NNW 9,7 1031,7 66 - -
01:35 -6,6 -11,9 6,4 NW 9,7 1031,7 66 - -
01:40 -6,6 -11,9 6,4 NW 9,7 1031,7 66 - -
01:45 -6,7 -11,9 4,8 NW 8,0 1032,1 66 - -
01:50 -6,7 -11,7 4,8 NNW 9,7 1032,1 68 - -
01:55 -6,8 -12,1 3,2 NW 9,7 1032,1 66 - -
02:00 -6,9 -11,9 1,6 NW 9,7 1032,1 68 - -
02:05 -6,7 -11,7 3,2 NW 9,7 1032,1 68 - -
02:10 -6,6 -11,5 6,4 NW 9,7 1032,1 68 - -
02:15 -6,4 -11,3 6,4 NW 11,3 1032,1 68 - -
02:20 -6,4 -11,3 4,8 NNW 11,3 1032,1 68 - -
02:25 -6,5 -11,3 4,8 NNW 11,3 1032,1 69 - -
02:30 -6,3 -11,3 4,8 NNW 8,0 1032,1 68 - -
02:35 -6,2 -11,2 4,8 NNW 8,0 1031,7 68 - -
02:40 -6,1 -11,1 4,8 NNW 8,0 1031,7 68 - -
02:45 -6,1 -11,1 4,8 NNW 6,4 1031,7 68 - -
02:50 -6,2 -11,2 3,2 NNW 6,4 1031,7 68 - -
02:55 -6,3 -11,1 3,2 NNW 6,4 1031,4 69 - -
03:00 -6,2 -11,0 3,2 North 6,4 1031,7 69 - -
03:05 -6,1 -10,9 3,2 North 8,0 1031,7 69 - -
03:10 -5,9 -10,7 4,8 North 8,0 1031,7 69 - -
03:15 -5,8 -10,7 4,8 NNE 11,3 1031,7 68 - -
03:20 -5,7 -10,6 4,8 North 11,3 1031,7 68 - -
03:25 -5,7 -10,6 4,8 North 9,7 1031,4 68 - -
03:30 -5,6 -10,6 4,8 NNE 11,3 1031,4 68 - -
03:35 -5,7 -10,6 4,8 NNE 11,3 1031,4 68 - -
03:40 -5,7 -10,6 4,8 North 9,7 1031,4 68 - -
03:45 -5,7 -10,6 4,8 North 9,7 1031,4 68 - -
03:50 -5,8 -10,6 3,2 North 6,4 1031,4 69 - -
03:55 -5,8 -10,6 3,2 North 6,4 1031,4 69 - -
04:00 -5,8 -10,6 3,2 North 6,4 1031,4 69 - -
04:05 -5,8 -10,6 3,2 North 8,0 1031,4 69 - -
04:10 -5,9 -10,7 3,2 North 8,0 1031,4 69 - -
04:15 -5,9 -10,7 3,2 North 8,0 1031,4 69 - -
04:20 -5,9 -10,7 3,2 North 8,0 1031,0 69 - -
04:25 -5,9 -10,6 1,6 North 6,4 1031,0 70 - -
04:30 -5,9 -10,6 3,2 North 6,4 1031,0 70 - -
04:35 -5,9 -10,6 1,6 North 6,4 1031,0 70 - -
04:40 -5,9 -10,5 1,6 North 4,8 1031,0 70 - -
04:45 -5,9 -10,5 3,2 North 6,4 1031,0 70 - -
04:50 -5,8 -10,4 4,8 North 8,0 1031,4 70 - -
04:55 -5,8 -10,4 4,8 North 8,0 1031,4 70 - -
05:00 -5,7 -10,3 6,4 North 11,3 1031,4 70 - -
05:05 -5,6 -10,2 8,0 NNW 11,3 1031,4 70 - -
05:10 -5,6 -10,2 8,0 NNW 11,3 1031,4 70 - -
05:15 -5,6 -10,2 6,4 NNW 11,3 1031,4 70 - -
05:20 -5,6 -10,2 4,8 NNW 8,0 1031,4 70 - -
05:25 -5,6 -10,2 4,8 North 8,0 1031,4 70 - -
05:30 -5,6 -10,2 4,8 NNW 8,0 1031,4 70 - -
05:35 -5,6 -10,2 4,8 NNW 8,0 1031,4 70 - -
05:40 -5,7 -10,3 4,8 NNW 6,4 1031,4 70 - -
05:45 -5,7 -10,3 3,2 NNW 6,4 1031,4 70 - -
05:50 -5,6 -10,2 4,8 NNW 9,7 1031,4 70 - -
05:55 -5,6 -10,2 6,4 NNW 9,7 1031,4 70 - -
06:00 -5,7 -10,1 6,4 NNW 11,3 1031,7 71 - -
06:05 -5,7 -10,1 6,4 NNW 11,3 1031,7 71 - -
06:10 -5,7 -10,1 6,4 NNW 11,3 1031,7 71 - -
06:15 -5,7 -10,1 6,4 NNW 9,7 1031,7 71 - -
06:20 -5,7 -10,1 8,0 NNW 12,9 1031,7 71 - -
06:25 -5,7 -10,1 8,0 NNW 12,9 1031,7 71 - -
06:30 -5,7 -10,1 8,0 NNW 12,9 1032,1 71 - -
06:35 -5,6 -10,1 9,7 NNW 12,9 1032,1 71 - -
06:40 -5,7 -10,1 11,3 NNW 14,5 1032,1 71 - -
06:45 -5,7 -9,9 11,3 North 14,5 1032,1 72 - -
06:50 -5,7 -9,9 11,3 North 14,5 1032,1 72 - -
06:55 -5,7 -9,9 9,7 North 14,5 1032,1 72 - -
07:00 -5,7 -9,7 8,0 NNW 14,5 1032,1 73 - -
07:05 -5,6 -9,8 9,7 NNW 14,5 1032,1 72 - -
07:10 -5,6 -9,8 8,0 North 12,9 1032,1 72 - -
07:15 -5,6 -9,8 6,4 North 11,3 1032,1 72 - -
07:20 -5,6 -9,8 6,4 North 11,3 1032,1 72 - -
07:25 -5,6 -9,8 6,4 NNW 11,3 1032,1 72 - -
07:30 -5,6 -9,7 6,4 NNW 14,5 1032,1 73 - 5
07:35 -5,5 -9,8 6,4 NNW 14,5 1032,1 72 - 7
07:40 -5,5 -9,6 6,4 NNW 11,3 1032,4 73 - 9
07:45 -5,5 -9,6 6,4 NNW 11,3 1032,4 73 - 12
07:50 -5,4 -9,5 6,4 NNW 12,9 1032,4 73 - 18
07:55 -5,4 -9,5 8,0 NNW 12,9 1032,4 73 - 21
08:00 -5,4 -9,5 6,4 NNW 12,9 1032,4 73 - 25
08:05 -5,3 -9,4 6,4 North 12,9 1032,4 73 - 28
08:10 -5,3 -9,4 6,4 NNW 11,3 1032,4 73 - 32
08:15 -5,3 -9,6 6,4 NNW 8,0 1032,4 72 - 42
08:20 -5,3 -9,6 6,4 NW 12,9 1032,7 72 - 49
08:25 -5,2 -9,4 8,0 NW 12,9 1032,7 72 - 49
08:30 -5,2 -9,4 6,4 NW 11,3 1032,7 72 - 51
08:35 -5,2 -9,4 6,4 NNW 11,3 1032,4 72 - 56
08:40 -5,1 -9,3 6,4 NNW 11,3 1032,4 72 - 62
08:45 -5,1 -9,3 6,4 NNW 9,7 1032,7 72 - 70
08:50 -5,0 -9,3 6,4 NNW 11,3 1032,7 72 - 70
08:55 -5,0 -9,3 6,4 NNW 12,9 1032,7 72 - 84
09:00 -4,9 -9,2 8,0 NW 12,9 1032,7 72 - 81
09:05 -4,8 -9,1 8,0 NNW 11,3 1032,7 72 - 88
09:10 -4,8 -9,1 8,0 NNW 11,3 1032,7 72 - 98
09:15 -4,7 -9,0 8,0 NNW 12,9 1032,7 72 - 113
09:20 -4,7 -9,2 8,0 NNW 12,9 1032,7 71 - 116
09:25 -4,7 -8,9 6,4 NNW 12,9 1032,7 72 - 118
09:30 -4,6 -9,0 6,4 NW 11,3 1032,7 71 - 62
09:35 -4,6 -9,0 6,4 NW 11,3 1032,7 71 - 76
09:40 -4,5 -8,9 4,8 NW 11,3 1032,7 71 - 114
09:45 -4,4 -8,8 6,4 NW 11,3 1032,7 71 - 139
09:50 -4,4 -8,8 8,0 NNW 12,9 1032,7 71 - 155
09:55 -4,3 -9,0 8,0 NNW 12,9 1032,7 70 - 162
10:00 -4,2 -8,9 8,0 North 12,9 1033,1 70 - 156
10:05 -4,2 -8,7 8,0 North 12,9 1033,1 71 - 149
10:10 -4,2 -8,7 9,7 NNW 12,9 1033,1 71 - 156
10:15 -4,2 -8,7 9,7 NNW 12,9 1033,1 71 - 178
10:20 -4,2 -8,7 9,7 NNW 12,9 1033,1 71 - 200
10:25 -4,0 -8,5 8,0 North 12,9 1033,1 71 - 199
10:30 -3,8 -8,3 6,4 North 12,9 1032,7 71 - 172
10:35 -3,7 -8,4 4,8 North 9,7 1032,7 70 - 165
10:40 -3,7 -8,4 3,2 NW 9,7 1033,1 70 - 163
10:45 -3,7 -8,4 3,2 NW 9,7 1032,7 70 - 172
10:50 -3,7 -8,3 4,8 NW 9,7 1032,7 70 - 193
10:55 -3,6 -8,2 4,8 NW 8,0 1032,7 70 - 207
11:00 -3,5 -8,2 4,8 NNW 11,3 1032,7 70 - 192
11:05 -3,6 -8,2 6,4 NNW 12,9 1032,7 70 - 204
11:10 -3,6 -8,2 8,0 NNW 14,5 1032,7 70 - 200
11:15 -3,5 -8,0 9,7 NNW 14,5 1032,7 71 - 207
11:20 -3,4 -7,9 8,0 NNW 12,9 1032,7 71 - 209
11:25 -3,4 -7,9 8,0 North 14,5 1032,7 71 - 202
11:30 -3,4 -7,9 9,7 NNW 16,1 1032,7 71 - 206
11:35 -3,4 -7,9 9,7 NNW 16,1 1032,4 71 - 223
11:40 -3,3 -7,8 9,7 NNW 12,9 1032,4 71 - 232
11:45 -3,3 -7,8 8,0 NNW 11,3 1032,4 71 - 188
11:50 -3,4 -7,8 8,0 North 14,5 1032,4 72 - 220
11:55 -3,3 -7,7 8,0 North 14,5 1032,4 72 - 220
12:00 -3,0 -7,5 3,2 NNE 9,7 1032,4 71 - 207
12:05 -3,2 -7,9 4,8 NNW 17,7 1032,4 70 - 202
12:10 -3,3 -7,8 8,0 North 17,7 1032,4 71 - 225
12:15 -3,2 -7,7 6,4 North 11,3 1032,1 71 - 260
12:20 -3,0 -7,7 6,4 North 14,5 1032,1 70 - 441
Daily Summary for Wednesday Jan 22 2020
Time Temp. ( °C ) Dew pt. ( °C ) Wind ( km/h ) from Gust ( km/h ) Pressure ( hPa ) Humid.( % ) Rainrate ( cm ) Solar ( W/m2 )
High-3,0 -7,5 11,3 NNW ( 294/512 ) 17,7 1033,1 73 - 441
Average-5,4 -10,1 5,5 NNW #73/149 10,1 1032,7 70 - 135 #59/149
Low-7,6 -12,4 -   0,0 1031,0 66 -  
Daily Tabular details for Wednesday Jan 22 2020
Time Temp. ( °C ) Dew pt. ( °C ) Wind ( km/h ) from Gust ( km/h ) Pressure ( hPa ) Humid.( % ) Rainrate ( cm ) Solar ( W/m2 )
00:00 -7,3 -12,0   Calm   1032,1 69 - -
00:05 -7,3 -11,9 1,6 NNW 3,2 1032,1 70 - -
00:10 -7,1 -12,0 1,6 NNW 4,8 1032,1 68 - -
00:15 -7,3 -12,0   Calm 4,8 1032,1 69 - -
00:20 -7,4 -12,0   Calm 3,2 1032,1 70 - -
00:25 -7,4 -12,0   Calm   1032,1 70 - -
00:30 -7,4 -12,0   Calm   1032,1 70 - -
00:35 -7,6 -12,1   Calm 3,2 1032,1 70 - -
00:40 -7,6 -11,9   Calm 3,2 1032,1 71 - -
00:45 -7,6 -12,1   Calm 3,2 1032,1 70 - -
00:50 -7,6 -12,3   Calm 4,8 1032,1 69 - -
00:55 -7,6 -12,4   Calm 4,8 1032,1 68 - -
01:00 -7,6 -12,3   Calm 3,2 1032,1 69 - -
01:05 -7,3 -12,0 1,6 NNW 8,0 1032,1 69 - -
01:10 -7,2 -12,3 1,6 NNW 8,0 1032,1 67 - -
01:15 -6,9 -11,9 3,2 NNW 8,0 1032,1 68 - -
01:20 -6,7 -11,8 4,8 NNW 8,0 1032,1 67 - -
01:25 -6,7 -11,9 6,4 NNW 9,7 1032,1 66 - -
01:30 -6,7 -11,9 6,4 NNW 9,7 1031,7 66 - -
01:35 -6,6 -11,9 6,4 NW 9,7 1031,7 66 - -
01:40 -6,6 -11,9 6,4 NW 9,7 1031,7 66 - -
01:45 -6,7 -11,9 4,8 NW 8,0 1032,1 66 - -
01:50 -6,7 -11,7 4,8 NNW 9,7 1032,1 68 - -
01:55 -6,8 -12,1 3,2 NW 9,7 1032,1 66 - -
02:00 -6,9 -11,9 1,6 NW 9,7 1032,1 68 - -
02:05 -6,7 -11,7 3,2 NW 9,7 1032,1 68 - -
02:10 -6,6 -11,5 6,4 NW 9,7 1032,1 68 - -
02:15 -6,4 -11,3 6,4 NW 11,3 1032,1 68 - -
02:20 -6,4 -11,3 4,8 NNW 11,3 1032,1 68 - -
02:25 -6,5 -11,3 4,8 NNW 11,3 1032,1 69 - -
02:30 -6,3 -11,3 4,8 NNW 8,0 1032,1 68 - -
02:35 -6,2 -11,2 4,8 NNW 8,0 1031,7 68 - -
02:40 -6,1 -11,1 4,8 NNW 8,0 1031,7 68 - -
02:45 -6,1 -11,1 4,8 NNW 6,4 1031,7 68 - -
02:50 -6,2 -11,2 3,2 NNW 6,4 1031,7 68 - -
02:55 -6,3 -11,1 3,2 NNW 6,4 1031,4 69 - -
03:00 -6,2 -11,0 3,2 North 6,4 1031,7 69 - -
03:05 -6,1 -10,9 3,2 North 8,0 1031,7 69 - -
03:10 -5,9 -10,7 4,8 North 8,0 1031,7 69 - -
03:15 -5,8 -10,7 4,8 NNE 11,3 1031,7 68 - -
03:20 -5,7 -10,6 4,8 North 11,3 1031,7 68 - -
03:25 -5,7 -10,6 4,8 North 9,7 1031,4 68 - -
03:30 -5,6 -10,6 4,8 NNE 11,3 1031,4 68 - -
03:35 -5,7 -10,6 4,8 NNE 11,3 1031,4 68 - -
03:40 -5,7 -10,6 4,8 North 9,7 1031,4 68 - -
03:45 -5,7 -10,6 4,8 North 9,7 1031,4 68 - -
03:50 -5,8 -10,6 3,2 North 6,4 1031,4 69 - -
03:55 -5,8 -10,6 3,2 North 6,4 1031,4 69 - -
04:00 -5,8 -10,6 3,2 North 6,4 1031,4 69 - -
04:05 -5,8 -10,6 3,2 North 8,0 1031,4 69 - -
04:10 -5,9 -10,7 3,2 North 8,0 1031,4 69 - -
04:15 -5,9 -10,7 3,2 North 8,0 1031,4 69 - -
04:20 -5,9 -10,7 3,2 North 8,0 1031,0 69 - -
04:25 -5,9 -10,6 1,6 North 6,4 1031,0 70 - -
04:30 -5,9 -10,6 3,2 North 6,4 1031,0 70 - -
04:35 -5,9 -10,6 1,6 North 6,4 1031,0 70 - -
04:40 -5,9 -10,5 1,6 North 4,8 1031,0 70 - -
04:45 -5,9 -10,5 3,2 North 6,4 1031,0 70 - -
04:50 -5,8 -10,4 4,8 North 8,0 1031,4 70 - -
04:55 -5,8 -10,4 4,8 North 8,0 1031,4 70 - -
05:00 -5,7 -10,3 6,4 North 11,3 1031,4 70 - -
05:05 -5,6 -10,2 8,0 NNW 11,3 1031,4 70 - -
05:10 -5,6 -10,2 8,0 NNW 11,3 1031,4 70 - -
05:15 -5,6 -10,2 6,4 NNW 11,3 1031,4 70 - -
05:20 -5,6 -10,2 4,8 NNW 8,0 1031,4 70 - -
05:25 -5,6 -10,2 4,8 North 8,0 1031,4 70 - -
05:30 -5,6 -10,2 4,8 NNW 8,0 1031,4 70 - -
05:35 -5,6 -10,2 4,8 NNW 8,0 1031,4 70 - -
05:40 -5,7 -10,3 4,8 NNW 6,4 1031,4 70 - -
05:45 -5,7 -10,3 3,2 NNW 6,4 1031,4 70 - -
05:50 -5,6 -10,2 4,8 NNW 9,7 1031,4 70 - -
05:55 -5,6 -10,2 6,4 NNW 9,7 1031,4 70 - -
06:00 -5,7 -10,1 6,4 NNW 11,3 1031,7 71 - -
06:05 -5,7 -10,1 6,4 NNW 11,3 1031,7 71 - -
06:10 -5,7 -10,1 6,4 NNW 11,3 1031,7 71 - -
06:15 -5,7 -10,1 6,4 NNW 9,7 1031,7 71 - -
06:20 -5,7 -10,1 8,0 NNW 12,9 1031,7 71 - -
06:25 -5,7 -10,1 8,0 NNW 12,9 1031,7 71 - -
06:30 -5,7 -10,1 8,0 NNW 12,9 1032,1 71 - -
06:35 -5,6 -10,1 9,7 NNW 12,9 1032,1 71 - -
06:40 -5,7 -10,1 11,3 NNW 14,5 1032,1 71 - -
06:45 -5,7 -9,9 11,3 North 14,5 1032,1 72 - -
06:50 -5,7 -9,9 11,3 North 14,5 1032,1 72 - -
06:55 -5,7 -9,9 9,7 North 14,5 1032,1 72 - -
07:00 -5,7 -9,7 8,0 NNW 14,5 1032,1 73 - -
07:05 -5,6 -9,8 9,7 NNW 14,5 1032,1 72 - -
07:10 -5,6 -9,8 8,0 North 12,9 1032,1 72 - -
07:15 -5,6 -9,8 6,4 North 11,3 1032,1 72 - -
07:20 -5,6 -9,8 6,4 North 11,3 1032,1 72 - -
07:25 -5,6 -9,8 6,4 NNW 11,3 1032,1 72 - -
07:30 -5,6 -9,7 6,4 NNW 14,5 1032,1 73 - 5
07:35 -5,5 -9,8 6,4 NNW 14,5 1032,1 72 - 7
07:40 -5,5 -9,6 6,4 NNW 11,3 1032,4 73 - 9
07:45 -5,5 -9,6 6,4 NNW 11,3 1032,4 73 - 12
07:50 -5,4 -9,5 6,4 NNW 12,9 1032,4 73 - 18
07:55 -5,4 -9,5 8,0 NNW 12,9 1032,4 73 - 21
08:00 -5,4 -9,5 6,4 NNW 12,9 1032,4 73 - 25
08:05 -5,3 -9,4 6,4 North 12,9 1032,4 73 - 28
08:10 -5,3 -9,4 6,4 NNW 11,3 1032,4 73 - 32
08:15 -5,3 -9,6 6,4 NNW 8,0 1032,4 72 - 42
08:20 -5,3 -9,6 6,4 NW 12,9 1032,7 72 - 49
08:25 -5,2 -9,4 8,0 NW 12,9 1032,7 72 - 49
08:30 -5,2 -9,4 6,4 NW 11,3 1032,7 72 - 51
08:35 -5,2 -9,4 6,4 NNW 11,3 1032,4 72 - 56
08:40 -5,1 -9,3 6,4 NNW 11,3 1032,4 72 - 62
08:45 -5,1 -9,3 6,4 NNW 9,7 1032,7 72 - 70
08:50 -5,0 -9,3 6,4 NNW 11,3 1032,7 72 - 70
08:55 -5,0 -9,3 6,4 NNW 12,9 1032,7 72 - 84
09:00 -4,9 -9,2 8,0 NW 12,9 1032,7 72 - 81
09:05 -4,8 -9,1 8,0 NNW 11,3 1032,7 72 - 88
09:10 -4,8 -9,1 8,0 NNW 11,3 1032,7 72 - 98
09:15 -4,7 -9,0 8,0 NNW 12,9 1032,7 72 - 113
09:20 -4,7 -9,2 8,0 NNW 12,9 1032,7 71 - 116
09:25 -4,7 -8,9 6,4 NNW 12,9 1032,7 72 - 118
09:30 -4,6 -9,0 6,4 NW 11,3 1032,7 71 - 62
09:35 -4,6 -9,0 6,4 NW 11,3 1032,7 71 - 76
09:40 -4,5 -8,9 4,8 NW 11,3 1032,7 71 - 114
09:45 -4,4 -8,8 6,4 NW 11,3 1032,7 71 - 139
09:50 -4,4 -8,8 8,0 NNW 12,9 1032,7 71 - 155
09:55 -4,3 -9,0 8,0 NNW 12,9 1032,7 70 - 162
10:00 -4,2 -8,9 8,0 North 12,9 1033,1 70 - 156
10:05 -4,2 -8,7 8,0 North 12,9 1033,1 71 - 149
10:10 -4,2 -8,7 9,7 NNW 12,9 1033,1 71 - 156
10:15 -4,2 -8,7 9,7 NNW 12,9 1033,1 71 - 178
10:20 -4,2 -8,7 9,7 NNW 12,9 1033,1 71 - 200
10:25 -4,0 -8,5 8,0 North 12,9 1033,1 71 - 199
10:30 -3,8 -8,3 6,4 North 12,9 1032,7 71 - 172
10:35 -3,7 -8,4 4,8 North 9,7 1032,7 70 - 165
10:40 -3,7 -8,4 3,2 NW 9,7 1033,1 70 - 163
10:45 -3,7 -8,4 3,2 NW 9,7 1032,7 70 - 172
10:50 -3,7 -8,3 4,8 NW 9,7 1032,7 70 - 193
10:55 -3,6 -8,2 4,8 NW 8,0 1032,7 70 - 207
11:00 -3,5 -8,2 4,8 NNW 11,3 1032,7 70 - 192
11:05 -3,6 -8,2 6,4 NNW 12,9 1032,7 70 - 204
11:10 -3,6 -8,2 8,0 NNW 14,5 1032,7 70 - 200
11:15 -3,5 -8,0 9,7 NNW 14,5 1032,7 71 - 207
11:20 -3,4 -7,9 8,0 NNW 12,9 1032,7 71 - 209
11:25 -3,4 -7,9 8,0 North 14,5 1032,7 71 - 202
11:30 -3,4 -7,9 9,7 NNW 16,1 1032,7 71 - 206
11:35 -3,4 -7,9 9,7 NNW 16,1 1032,4 71 - 223
11:40 -3,3 -7,8 9,7 NNW 12,9 1032,4 71 - 232
11:45 -3,3 -7,8 8,0 NNW 11,3 1032,4 71 - 188
11:50 -3,4 -7,8 8,0 North 14,5 1032,4 72 - 220
11:55 -3,3 -7,7 8,0 North 14,5 1032,4 72 - 220
12:00 -3,0 -7,5 3,2 NNE 9,7 1032,4 71 - 207
12:05 -3,2 -7,9 4,8 NNW 17,7 1032,4 70 - 202
12:10 -3,3 -7,8 8,0 North 17,7 1032,4 71 - 225
12:15 -3,2 -7,7 6,4 North 11,3 1032,1 71 - 260
12:20 -3,0 -7,7 6,4 North 14,5 1032,1 70 - 441

Download your copy of this data-set  here

Our weather-data as stored at Weather Underground. Script developed by Jim McMurry. Adapted for the template by Leuven-Template.eu

You find our weather info also at:

WeatherCloud

Weather Underground

Citizen Weather Observer Program (CWOP)

Equipment we use:

Weather-station
Davis VP2

Weather-program
Cumulus

Davis VP2

Cumulus